SCP
0 0 0 1 1 0 0 0 0 0 0 0 0 0 0 0 0 0 0 0 0 0 0 0 0 0 0 0 0 0 0 0 0 0 0 0 0 0 0 -0 -0 -0 -0
0 0 0 0 1 1 1 0 0 0 0 0 0 0 0 0 0 0 0 0 0 0 0 0 0 0 0 0 0 0 0 0 0 0 0 0 0 0 -0 -0 0 0 -0
0 0 0 1 1 1 1 1 0 0 0 0 0 0 0 0 0 0 0 0 0 0 0 0 0 0 0 0 0 0 0 0 0 0 0 0 0 0 0 0 0 0 0
0 0 1 1 1 1 1 1 1 0 0 0 0 0 0 0 0 0 0 0 0 0 0 0 0 0 0 0 0 0 0 0 0 0 0 0 0 0 0 0 0 0 0
0 0 1 0 1 1 1 1 1 0 0 0 0 0 0 0 0 0 0 0 -0 0 0 0 0 0 0 0 0 0 0 0 0 -0 0 0 0 0 0 0 0 0 0
0 0 1 0 1 1 1 1 1 0 0 0 0 0 0 0 0 0 0 0 0 0 0 0 0 0 0 0 0 0 0 0 0 0 0 0 0 0 0 0 0 0 0
0 1 0 0 1 1 0 0 1 1 0 0 0 0 0 0 0 0 0 0 0 0 0 0 0 0 0 0 0 0 0 0 0 0 0 0 0 0 0 0 0 0 0
0 0 1 0 1 1 0 0 0 0 1 0 0 0 0 0 0 0 0 0 0 0 0 0 0 0 0 0 0 0 0 0 0 0 0 0 0 0 0 0 0 0 0
-0 0 0 0 0 0 1 0 0 0 0 0 0 0 0 0 0 0 0 0 0 0 0 0 0 0 0 0 0 0 0 0 0 0 0 0 0 0 0 0 0 0 0
-0 0 0 0 0 0 0 0 0 1 1 0 0 0 0 0 0 0 0 0 0 0 0 0 0 0 0 0 0 0 0 0 0 0 0 0 -0 0 0 0 0 0 0
0 -0 0 0 0 0 0 0 0 0 0 0 0 0 0 0 0 0 0 0 0 0 0 0 0 0 0 0 0 0 0 0 0 0 0 0 -0 -0 0 0 0 0 0
0 -0 -0 -0 -0 0 0 0 0 0 0 0 0 0 0 0 0 0 0 0 0 0 0 0 0 0 0 0 0 0 0 0 0 0 0 0 0 0 0 0 0 0 0
-0 0 -0 -0 -0 -0 0 0 0 1 0 0 0 0 0 0 0 0 0 0 0 0 0 0 0 0 0 0 0 0 0 0 0 0 0 0 0 0 0 0 0 0 0
0 0 -0 -0 -0 -0 0 0 0 0 1 0 0 0 0 0 0 0 0 0 0 0 0 0 0 0 0 0 0 0 0 0 0 0 0 0 0 0 0 0 0 0 0
0 0 -0 -0 -0 -0 -0 -0 -0 0 0 0 0 0 0 0 0 0 0 0 0 0 0 0 0 0 0 0 0 0 0 0 0 0 0 0 0 0 0 0 0 0 0
0 0 -0 -0 -0 -0 -0 -0 -0 0 0 0 0 0 0 0 0 0 0 0 0 0 0 0 0 0 0 0 0 0 0 0 0 0 0 0 0 0 0 0 0 0 0
0 0 0 -0 -0 -0 -0 0 0 0 -0 0 0 0 0 0 0 0 0 0 0 0 0 0 0 0 0 0 0 0 0 0 0 0 0 0 0 0 0 0 0 0 0
0 0 0 -0 -0 -0 -0 -0 0 -0 -0 0 0 0 0 0 0 0 0 0 0 0 0 0 0 0 0 0 0 0 0 0 0 0 0 0 0 0 0 0 0 0 0
0 0 0 -0 -0 0 0 -0 0 0 0 0 0 0 0 0 0 0 0 0 0 0 0 0 0 0 0 0 0 0 0 0 0 0 0 0 0 0 0 0 0 0 0
0 0 0 0 0 0 0 0 -0 0 -0 0 0 0 0 0 0 0 0 0 0 0 0 0 0 0 0 0 0 0 0 0 0 0 0 0 0 0 0 0 0 0 0
-0 0 0 0 0 0 0 0 0 -0 -0 0 0 0 0 0 0 0 0 0 0 0 0 0 0 0 0 0 0 0 0 0 0 0 0 0 0 0 0 0 0 0 0
0 0 0 0 0 0 0 0 -0 0 0 0 0 0 0 0 0 0 0 0 0 0 0 0 0 0 0 0 0 0 0 0 0 0 0 0 0 0 0 0 0 0 0
0 0 0 0 0 0 0 0 0 0 0 0 0 0 0 0 0 0 0 0 0 0 0 0 0 0 0 0 0 0 0 0 0 0 0 0 0 0 0 0 0 0 0
0 0 0 0 0 0 0 0 0 0 0 0 0 0 0 0 0 0 0 0 0 0 0 0 0 0 0 0 0 0 0 0 0 0 0 0 0 0 0 0 0 0 0
-0 0 0 0 0 0 0 0 0 0 0 0 0 0 0 0 0 0 0 0 0 0 0 0 0 0 0 0 0 0 0 0 0 0 0 0 0 0 0 0 0 0 0
0 0 0 0 0 0 0 0 0 0 0 0 0 0 0 0 0 0 0 0 0 0 0 0 0 0 0 0 0 0 0 0 0 0 0 0 0 0 0 0 0 0 0
Wind_Speed_500mb
12 22 7 18 35 42 47 46 46 43 47 48 47 43 38 33 31 32 32 32 30 30 27 27 30 31 30 30 30 32 33 31 25 21 24 24 26 28 27 26 31 33 33
8 22 14 19 35 49 48 49 47 46 44 46 45 41 37 34 34 35 34 32 29 27 26 30 34 34 34 37 33 32 28 28 26 24 25 27 27 30 30 27 32 31 27
10 17 23 23 36 50 50 49 47 48 45 45 44 41 36 35 36 37 34 30 27 27 29 33 35 40 39 34 26 25 27 27 20 20 18 21 25 23 22 22 20 18 17
17 5 27 32 35 48 52 51 48 47 45 45 43 40 37 36 39 38 34 32 29 27 28 35 40 42 35 27 24 25 25 22 25 26 17 15 20 21 18 14 10 11 9
22 3 28 30 30 50 54 54 51 49 47 46 44 41 39 40 40 38 37 33 34 28 28 39 40 37 31 30 25 24 23 25 24 20 16 16 23 22 22 20 15 8 5
18 12 24 25 27 51 54 57 55 52 49 47 45 42 41 42 40 41 39 40 41 32 33 38 35 35 32 30 24 24 24 23 21 23 30 23 22 21 21 18 10 9 5
4 4 20 25 30 43 59 57 59 57 53 49 45 43 41 43 42 43 39 42 42 37 42 39 34 34 33 30 26 26 26 26 22 23 18 18 12 16 13 12 13 11 10
9 10 15 28 32 44 59 60 60 59 55 52 49 44 40 41 41 43 43 45 43 42 46 41 38 32 33 29 26 25 26 30 22 20 19 18 12 5 5 11 15 14 9
22 12 18 21 31 51 48 62 62 59 57 58 55 47 43 40 36 42 44 48 45 42 43 42 35 36 34 31 26 24 27 31 25 20 19 17 13 8 4 8 10 13 13
38 21 19 26 35 47 56 58 64 62 62 61 55 51 48 44 39 38 42 47 41 41 40 35 32 35 35 31 27 25 26 35 27 23 20 18 18 15 8 9 12 15 12
26 40 28 32 33 51 62 60 64 64 65 63 59 56 52 49 46 44 43 41 39 39 35 32 31 32 30 32 28 26 27 39 29 26 26 22 20 18 14 11 12 16 13
33 38 43 36 41 38 39 60 70 70 69 69 65 63 59 56 53 50 47 43 41 39 33 33 29 32 31 32 31 31 29 36 31 28 32 26 24 25 24 10 7 13 14
47 33 45 44 38 43 42 37 66 79 77 74 71 69 65 63 56 55 50 48 48 45 41 38 33 33 33 30 28 31 28 31 29 33 32 31 28 27 28 17 12 9 10
53 48 41 58 47 45 35 51 40 84 84 84 81 75 74 73 65 57 55 55 52 51 44 42 39 36 33 29 26 22 28 30 35 35 32 30 30 30 27 25 19 11 11
53 44 36 52 54 48 39 51 32 36 86 94 87 81 82 80 72 64 57 56 56 54 49 47 42 39 36 36 33 32 28 33 36 32 32 33 28 31 27 26 29 28 25
48 36 37 46 52 47 42 46 45 75 18 94 87 85 85 84 77 71 61 60 56 54 49 43 42 39 36 39 39 31 33 38 37 35 30 29 30 32 32 32 33 39 40
43 42 38 46 46 40 39 39 44 44 70 47 72 94 71 81 76 71 65 58 58 55 49 47 48 46 44 43 41 38 33 38 41 44 41 37 37 37 36 36 37 40 42
38 36 35 37 40 29 32 32 42 47 51 27 98 77 72 83 74 65 65 60 49 52 58 52 49 48 48 47 41 38 42 41 44 43 44 47 38 44 40 39 42 44 46
31 30 34 33 37 24 26 24 32 45 34 57 61 79 68 62 73 66 61 62 51 46 59 50 50 48 43 43 41 38 37 37 41 43 49 50 50 46 46 46 46 46 48
28 33 34 32 32 19 27 29 15 31 37 27 33 52 77 75 76 62 55 56 52 47 56 55 47 48 44 38 42 36 34 33 36 39 42 44 46 44 44 49 52 52 51
33 36 36 31 21 26 31 31 20 20 32 21 32 41 62 86 76 56 49 48 48 42 49 52 52 46 51 39 36 33 33 34 39 43 45 46 44 45 47 50 51 53 54
30 32 33 30 26 28 34 36 26 20 24 26 29 39 45 51 54 53 39 35 34 43 45 48 47 51 53 46 46 40 34 33 35 36 36 40 49 51 50 50 55 57 61
29 31 32 28 31 29 31 38 30 24 22 30 28 48 33 50 50 43 44 44 35 42 44 45 45 49 50 55 43 38 16 19 22 19 22 31 38 42 56 62 65 65 62
27 29 28 34 31 22 32 39 35 24 28 37 37 33 30 53 49 35 31 32 30 31 37 38 39 44 44 42 44 51 46 52 47 34 33 32 38 44 48 50 55 57 52
31 23 27 33 34 27 30 36 36 24 23 23 32 19 38 59 51 47 34 32 24 31 30 34 40 32 36 35 38 41 41 41 49 52 42 37 34 34 36 40 40 40 41
18 14 29 30 22 23 34 38 43 29 22 34 38 48 54 55 57 43 48 44 36 36 38 35 30 33 36 39 41 45 41 36 30 19 14 23 24 25 22 27 29 30 31
Wind_Direction_500mb
335 300 299 234 211 199 188 187 182 181 178 178 180 181 182 187 184 182 176 171 170 172 175 170 164 165 168 164 149 139 132 130 126 124 125 121 123 126 118 114 122 120 124
80 291 281 257 212 194 192 190 188 187 184 183 184 185 184 185 181 177 172 169 168 173 174 161 157 154 150 145 139 136 135 135 125 126 129 130 130 127 123 121 130 136 139
56 300 271 255 212 199 194 192 193 194 187 188 190 188 189 186 178 173 170 167 163 166 169 161 155 149 147 147 151 146 151 135 128 121 127 138 138 138 136 135 140 147 153
356 238 261 251 223 207 199 196 198 198 194 192 193 191 189 188 179 171 165 158 153 157 165 159 154 151 152 158 158 153 146 129 132 131 128 151 144 153 151 154 166 180 199
353 331 256 248 238 213 206 201 202 204 200 196 195 193 190 189 183 175 168 161 165 173 164 159 159 162 165 166 164 160 149 145 139 127 149 151 142 152 174 178 193 206 151
31 332 260 255 252 216 211 207 205 208 203 201 199 195 192 192 191 183 177 169 172 178 161 163 173 172 178 179 170 166 156 155 139 152 153 167 171 177 187 189 182 197 218
296 71 267 271 255 221 214 212 210 208 206 203 202 199 196 195 195 193 187 185 181 184 173 175 187 183 187 187 181 169 162 161 152 172 181 172 181 198 207 202 196 206 214
332 227 240 267 264 222 218 216 214 209 206 205 201 202 196 198 201 202 194 190 185 187 183 188 194 190 193 193 188 179 173 174 159 189 196 210 203 229 221 208 202 207 210
330 272 235 244 258 221 220 221 218 212 206 203 204 203 202 203 206 196 193 192 192 194 189 195 192 195 193 193 193 188 182 176 179 196 211 211 221 245 255 221 198 191 187
323 296 278 246 224 233 220 223 220 212 207 207 206 204 198 195 201 203 192 191 189 188 187 188 187 188 191 196 194 187 182 179 193 190 211 222 231 247 247 231 205 192 193
320 312 278 256 240 210 215 226 224 217 211 210 208 205 200 197 206 203 203 189 189 189 196 193 188 188 194 197 199 193 184 183 194 199 218 227 243 263 264 249 213 202 203
302 310 299 269 270 241 225 213 223 220 211 209 210 204 204 203 205 202 201 189 191 192 198 200 198 195 202 203 205 203 198 187 194 223 226 231 245 264 264 240 238 233 227
294 296 295 288 290 267 254 240 218 221 212 210 209 206 204 205 206 204 204 193 191 190 199 203 208 203 211 212 215 219 207 190 196 224 233 234 241 257 262 257 258 240 235
287 277 285 284 286 301 277 228 259 212 212 212 210 207 203 206 204 205 206 201 193 195 191 207 209 208 213 194 223 235 221 198 210 227 235 241 247 254 251 261 262 257 254
281 289 285 282 283 294 281 272 270 227 215 215 210 209 205 207 205 205 205 206 200 195 194 204 207 211 213 200 217 226 220 214 221 224 242 245 253 254 246 248 264 283 283
275 284 275 285 284 288 296 282 267 222 262 216 211 213 198 211 207 207 205 205 206 199 200 202 208 212 209 215 217 226 225 222 223 211 232 240 247 251 245 239 244 255 272
268 272 283 287 289 280 288 287 286 263 264 218 216 207 199 205 207 210 207 208 208 202 200 205 211 214 218 216 216 218 232 230 231 226 229 243 249 250 247 248 248 247 250
265 269 282 286 293 281 276 285 282 297 261 249 217 203 210 196 208 213 212 209 211 200 201 209 214 219 214 219 226 223 224 228 231 234 236 238 242 254 256 257 257 257 259
261 273 279 282 287 286 268 265 279 281 292 243 230 217 199 214 215 218 217 209 205 202 207 214 211 220 211 207 226 227 233 235 235 233 235 242 248 258 264 269 272 270 268
277 264 275 274 284 285 261 248 253 283 303 264 240 209 215 203 203 217 218 213 204 208 213 219 219 222 227 233 237 237 238 243 246 246 255 257 258 266 273 279 280 278 274
283 268 264 267 280 283 258 239 233 284 290 263 238 255 199 214 218 204 209 212 210 220 224 222 229 224 234 231 235 236 242 236 246 257 267 273 275 274 275 275 274 272 272
281 273 267 259 263 267 260 233 229 275 291 235 227 227 232 190 200 212 200 200 221 230 229 226 231 229 235 231 226 241 256 268 274 282 281 279 272 271 270 269 269 267 266
275 272 268 265 260 265 258 233 223 247 278 238 225 229 218 219 207 197 216 206 206 228 238 240 232 236 234 244 251 243 249 248 271 286 275 262 263 261 258 258 265 268 268
272 272 257 258 275 251 248 224 218 223 216 226 224 232 226 231 203 198 200 199 205 232 234 242 249 243 241 248 249 251 254 258 271 282 269 254 262 257 259 255 257 259 267
265 269 286 280 275 231 226 216 209 223 190 206 227 219 222 207 220 210 201 192 209 226 235 239 235 237 237 242 242 253 250 249 260 266 271 254 255 267 274 290 290 288 288
275 309 277 276 270 242 214 198 193 196 183 212 216 208 206 210 210 200 201 199 197 220 218 219 224 230 234 240 245 252 256 258 250 245 269 273 293 287 290 294 296 297 298
Wind_Speed_850mb
12 22 7 18 35 42 47 46 46 43 47 48 47 43 38 33 31 32 32 32 30 30 27 27 30 31 30 30 30 32 33 31 25 21 24 24 26 28 27 26 31 33 33
8 22 14 19 35 49 48 49 47 46 44 46 45 41 37 34 34 35 34 32 29 27 26 30 34 34 34 37 33 32 28 28 26 24 25 27 27 30 30 27 32 31 27
10 17 23 23 36 50 50 49 47 48 45 45 44 41 36 35 36 37 34 30 27 27 29 33 35 40 39 34 26 25 27 27 20 20 18 21 25 23 22 22 20 18 17
17 5 27 32 35 48 52 51 48 47 45 45 43 40 37 36 39 38 34 32 29 27 28 35 40 42 35 27 24 25 25 22 25 26 17 15 20 21 18 14 10 11 9
22 3 28 30 30 50 54 54 51 49 47 46 44 41 39 40 40 38 37 33 34 28 28 39 40 37 31 30 25 24 23 25 24 20 16 16 23 22 22 20 15 8 5
18 12 24 25 27 51 54 57 55 52 49 47 45 42 41 42 40 41 39 40 41 32 33 38 35 35 32 30 24 24 24 23 21 23 30 23 22 21 21 18 10 9 5
4 4 20 25 30 43 59 57 59 57 53 49 45 43 41 43 42 43 39 42 42 37 42 39 34 34 33 30 26 26 26 26 22 23 18 18 12 16 13 12 13 11 10
9 10 15 28 32 44 59 60 60 59 55 52 49 44 40 41 41 43 43 45 43 42 46 41 38 32 33 29 26 25 26 30 22 20 19 18 12 5 5 11 15 14 9
22 12 18 21 31 51 48 62 62 59 57 58 55 47 43 40 36 42 44 48 45 42 43 42 35 36 34 31 26 24 27 31 25 20 19 17 13 8 4 8 10 13 13
38 21 19 26 35 47 56 58 64 62 62 61 55 51 48 44 39 38 42 47 41 41 40 35 32 35 35 31 27 25 26 35 27 23 20 18 18 15 8 9 12 15 12
26 40 28 32 33 51 62 60 64 64 65 63 59 56 52 49 46 44 43 41 39 39 35 32 31 32 30 32 28 26 27 39 29 26 26 22 20 18 14 11 12 16 13
33 38 43 36 41 38 39 60 70 70 69 69 65 63 59 56 53 50 47 43 41 39 33 33 29 32 31 32 31 31 29 36 31 28 32 26 24 25 24 10 7 13 14
47 33 45 44 38 43 42 37 66 79 77 74 71 69 65 63 56 55 50 48 48 45 41 38 33 33 33 30 28 31 28 31 29 33 32 31 28 27 28 17 12 9 10
53 48 41 58 47 45 35 51 40 84 84 84 81 75 74 73 65 57 55 55 52 51 44 42 39 36 33 29 26 22 28 30 35 35 32 30 30 30 27 25 19 11 11
53 44 36 52 54 48 39 51 32 36 86 94 87 81 82 80 72 64 57 56 56 54 49 47 42 39 36 36 33 32 28 33 36 32 32 33 28 31 27 26 29 28 25
48 36 37 46 52 47 42 46 45 75 18 94 87 85 85 84 77 71 61 60 56 54 49 43 42 39 36 39 39 31 33 38 37 35 30 29 30 32 32 32 33 39 40
43 42 38 46 46 40 39 39 44 44 70 47 72 94 71 81 76 71 65 58 58 55 49 47 48 46 44 43 41 38 33 38 41 44 41 37 37 37 36 36 37 40 42
38 36 35 37 40 29 32 32 42 47 51 27 98 77 72 83 74 65 65 60 49 52 58 52 49 48 48 47 41 38 42 41 44 43 44 47 38 44 40 39 42 44 46
31 30 34 33 37 24 26 24 32 45 34 57 61 79 68 62 73 66 61 62 51 46 59 50 50 48 43 43 41 38 37 37 41 43 49 50 50 46 46 46 46 46 48
28 33 34 32 32 19 27 29 15 31 37 27 33 52 77 75 76 62 55 56 52 47 56 55 47 48 44 38 42 36 34 33 36 39 42 44 46 44 44 49 52 52 51
33 36 36 31 21 26 31 31 20 20 32 21 32 41 62 86 76 56 49 48 48 42 49 52 52 46 51 39 36 33 33 34 39 43 45 46 44 45 47 50 51 53 54
30 32 33 30 26 28 34 36 26 20 24 26 29 39 45 51 54 53 39 35 34 43 45 48 47 51 53 46 46 40 34 33 35 36 36 40 49 51 50 50 55 57 61
29 31 32 28 31 29 31 38 30 24 22 30 28 48 33 50 50 43 44 44 35 42 44 45 45 49 50 55 43 38 16 19 22 19 22 31 38 42 56 62 65 65 62
27 29 28 34 31 22 32 39 35 24 28 37 37 33 30 53 49 35 31 32 30 31 37 38 39 44 44 42 44 51 46 52 47 34 33 32 38 44 48 50 55 57 52
31 23 27 33 34 27 30 36 36 24 23 23 32 19 38 59 51 47 34 32 24 31 30 34 40 32 36 35 38 41 41 41 49 52 42 37 34 34 36 40 40 40 41
18 14 29 30 22 23 34 38 43 29 22 34 38 48 54 55 57 43 48 44 36 36 38 35 30 33 36 39 41 45 41 36 30 19 14 23 24 25 22 27 29 30 31
Wind_Direction_850mb
335 300 299 234 211 199 188 187 182 181 178 178 180 181 182 187 184 182 176 171 170 172 175 170 164 165 168 164 149 139 132 130 126 124 125 121 123 126 118 114 122 120 124
80 291 281 257 212 194 192 190 188 187 184 183 184 185 184 185 181 177 172 169 168 173 174 161 157 154 150 145 139 136 135 135 125 126 129 130 130 127 123 121 130 136 139
56 300 271 255 212 199 194 192 193 194 187 188 190 188 189 186 178 173 170 167 163 166 169 161 155 149 147 147 151 146 151 135 128 121 127 138 138 138 136 135 140 147 153
356 238 261 251 223 207 199 196 198 198 194 192 193 191 189 188 179 171 165 158 153 157 165 159 154 151 152 158 158 153 146 129 132 131 128 151 144 153 151 154 166 180 199
353 331 256 248 238 213 206 201 202 204 200 196 195 193 190 189 183 175 168 161 165 173 164 159 159 162 165 166 164 160 149 145 139 127 149 151 142 152 174 178 193 206 151
31 332 260 255 252 216 211 207 205 208 203 201 199 195 192 192 191 183 177 169 172 178 161 163 173 172 178 179 170 166 156 155 139 152 153 167 171 177 187 189 182 197 218
296 71 267 271 255 221 214 212 210 208 206 203 202 199 196 195 195 193 187 185 181 184 173 175 187 183 187 187 181 169 162 161 152 172 181 172 181 198 207 202 196 206 214
332 227 240 267 264 222 218 216 214 209 206 205 201 202 196 198 201 202 194 190 185 187 183 188 194 190 193 193 188 179 173 174 159 189 196 210 203 229 221 208 202 207 210
330 272 235 244 258 221 220 221 218 212 206 203 204 203 202 203 206 196 193 192 192 194 189 195 192 195 193 193 193 188 182 176 179 196 211 211 221 245 255 221 198 191 187
323 296 278 246 224 233 220 223 220 212 207 207 206 204 198 195 201 203 192 191 189 188 187 188 187 188 191 196 194 187 182 179 193 190 211 222 231 247 247 231 205 192 193
320 312 278 256 240 210 215 226 224 217 211 210 208 205 200 197 206 203 203 189 189 189 196 193 188 188 194 197 199 193 184 183 194 199 218 227 243 263 264 249 213 202 203
302 310 299 269 270 241 225 213 223 220 211 209 210 204 204 203 205 202 201 189 191 192 198 200 198 195 202 203 205 203 198 187 194 223 226 231 245 264 264 240 238 233 227
294 296 295 288 290 267 254 240 218 221 212 210 209 206 204 205 206 204 204 193 191 190 199 203 208 203 211 212 215 219 207 190 196 224 233 234 241 257 262 257 258 240 235
287 277 285 284 286 301 277 228 259 212 212 212 210 207 203 206 204 205 206 201 193 195 191 207 209 208 213 194 223 235 221 198 210 227 235 241 247 254 251 261 262 257 254
281 289 285 282 283 294 281 272 270 227 215 215 210 209 205 207 205 205 205 206 200 195 194 204 207 211 213 200 217 226 220 214 221 224 242 245 253 254 246 248 264 283 283
275 284 275 285 284 288 296 282 267 222 262 216 211 213 198 211 207 207 205 205 206 199 200 202 208 212 209 215 217 226 225 222 223 211 232 240 247 251 245 239 244 255 272
268 272 283 287 289 280 288 287 286 263 264 218 216 207 199 205 207 210 207 208 208 202 200 205 211 214 218 216 216 218 232 230 231 226 229 243 249 250 247 248 248 247 250
265 269 282 286 293 281 276 285 282 297 261 249 217 203 210 196 208 213 212 209 211 200 201 209 214 219 214 219 226 223 224 228 231 234 236 238 242 254 256 257 257 257 259
261 273 279 282 287 286 268 265 279 281 292 243 230 217 199 214 215 218 217 209 205 202 207 214 211 220 211 207 226 227 233 235 235 233 235 242 248 258 264 269 272 270 268
277 264 275 274 284 285 261 248 253 283 303 264 240 209 215 203 203 217 218 213 204 208 213 219 219 222 227 233 237 237 238 243 246 246 255 257 258 266 273 279 280 278 274
283 268 264 267 280 283 258 239 233 284 290 263 238 255 199 214 218 204 209 212 210 220 224 222 229 224 234 231 235 236 242 236 246 257 267 273 275 274 275 275 274 272 272
281 273 267 259 263 267 260 233 229 275 291 235 227 227 232 190 200 212 200 200 221 230 229 226 231 229 235 231 226 241 256 268 274 282 281 279 272 271 270 269 269 267 266
275 272 268 265 260 265 258 233 223 247 278 238 225 229 218 219 207 197 216 206 206 228 238 240 232 236 234 244 251 243 249 248 271 286 275 262 263 261 258 258 265 268 268
272 272 257 258 275 251 248 224 218 223 216 226 224 232 226 231 203 198 200 199 205 232 234 242 249 243 241 248 249 251 254 258 271 282 269 254 262 257 259 255 257 259 267
265 269 286 280 275 231 226 216 209 223 190 206 227 219 222 207 220 210 201 192 209 226 235 239 235 237 237 242 242 253 250 249 260 266 271 254 255 267 274 290 290 288 288
275 309 277 276 270 242 214 198 193 196 183 212 216 208 206 210 210 200 201 199 197 220 218 219 224 230 234 240 245 252 256 258 250 245 269 273 293 287 290 294 296 297 298